Regional Weather Roundup
Issued by NWS

Home | Current Version | Previous Version | Graphics & Text | Print | Product List | Glossary On
Versions: 1 2 3 4 5 6 7 8 9 10 11 12 13 14 15 16 17 18 19 20 21 22 23 24 25 26 27 28
000
ASUS45 KSLC 201110
RWRUT

UTAH REGIONAL WEATHER ROUNDUP
NATIONAL WEATHER SERVICE SALT LAKE CITY UT
400 AM MST FRI JAN 20 2017

UTZ001>011-023>025-201200-

NORTHERN UTAH

CITY           SKY/WX    TMP DP  RH WIND       PRES   REMARKS
BRIGHAM CITY     N/A     30  28  93 CALM      29.66S VSB 1
HILL AFB       SNOW      28  27  93 CALM      29.63F VSB 1/2
LOGAN          CLOUDY    28  26  92 SE3       29.63F FOG
OGDEN          LGT SNOW  28  28 100 S3        29.64S VSB 3/4
SALT LAKE CITY FOG       30  29  96 W3        29.65F VSB 1/4
TOOELE VALLEY  LGT SNOW  30  30 100 W5        29.65F VSB 1   WCI  25
WENDOVER       CLOUDY    25  23  93 SW3       29.66S VSB 1/2
HEBER CITY     LGT SNOW  28  28 100 CALM      29.59S
WEST JORDAN    CLOUDY    30  30 100 CALM      29.65S VSB 1/4

$$

UTZ011>015-024>027-201200-

CENTRAL/NORTHEAST UTAH

CITY           SKY/WX    TMP DP  RH WIND       PRES   REMARKS
PROVO AIRPORT  CLOUDY    32  30  93 W5        29.65S FOG     WCI  27
MOAB/CANYONLAN LGT SNOW  31  31 100 CALM      29.60F FOG
DELTA          CLOUDY    32  32 100 S5        29.64S VSB 1/4 WCI  27
PRICE          PTCLDY    17  15  92 CALM      29.58S
ROOSEVELT      CLOUDY    14  12  92 SW5       29.68S FOG     WCI   6
VERNAL         CLOUDY    17  14  88 CALM      29.65S

$$

UTZ013>016-019>022-027-201200-

SOUTHERN UTAH

CITY           SKY/WX    TMP DP  RH WIND       PRES   REMARKS
BRYCE CANYON   CLOUDY    24  20  84 NW3       29.63S
CEDAR CITY     FOG       17  16  95 W5        29.66F VSB 3/4 WCI  10
MILFORD        CLOUDY    31  29  92 S12       29.65S WCI  22
ST GEORGE      CLOUDY    39  34  81 CALM      29.75S
HANKSVILLE     CLOUDY    30  30 100 MISG      29.65F
BLANDING       CLOUDY    30  30 100 S7        29.71S VSB 1/4 WCI  23

$$

REGIONAL REPORTS     COLORADO/ARIZONA

CITY           SKY/WX    TMP DP  RH WIND       PRES   REMARKS
CRAIG, CO      LGT SNOW  27  24  89 SW5       29.56F FOG     WCI  22
GRAND JUNCTION LGT SNOW  31  31 100 W5        29.59S VSB 3/4 WCI  26
RIFLE, CO      LGT SNOW  29  29 100 CALM      29.57F FOG
MONTROSE, CO   LGT SNOW  30  30 100 SE7       29.61R FOG     WCI  23
CORTEZ, CO     FLURRIES  30  26  85 S10G20    29.66F WCI  21
COLORADO CITY  CLOUDY    34  32  93 SE3       29.74S
PAGE, AZ       PTCLDY    37  28  70 CALM      29.68S
GRAND CANYON   FOG       28  28 100 SW12      29.71F VSB 1/2 WCI  18
KINGMAN, AZ    CLOUDY    41  36  82 SW6       29.75F
FLAGSTAFF, AZ  LGT SNOW  28  27  96 SW12      29.71F VSB 3/4 WCI  18

$$

REGIONAL REPORTS    NEVADA/IDAHO/WYOMING

CITY           SKY/WX    TMP DP  RH WIND       PRES   REMARKS
LAS VEGAS, NV  CLOUDY    49  33  54 VRB6      29.68F
ELY, NY        PTCLDY     8   5  87 S10       29.63F WCI  -6
ELKO, NV       CLOUDY    20  16  84 E6        29.58F WCI  12
POCATELLO, ID  LGT SNOW  30  27  88 S9        29.61F FOG     WCI  22
BURLEY, ID     FLURRIES  32  27  81 SW9       29.58F WCI  24
FORT BRIDGER,  CLOUDY    26  26 100 W5        29.60F WCI  20
EVANSTON, WY   CLOUDY    24  20  84 SW8       29.58R FOG     WCI  15
ROCK SPRINGS,  CLOUDY    21  19  92 W8        29.56F WCI  11

$$




USA.gov is the U.S. government's official web portal to all federal, state and local government web resources and services.